DW6064 Weather Reports


time (UTC)temp
C
wind
direction
speed
KPH
gust
KPH
rain 1hr
cm
rain 24hr
cm
rain mn
cm
humidity
%
barometer
mb
20260506195529 20 194 8.0 16.1 0.00 0.53 0.53 83 1006.9
20260506195026 20 246 6.4 19.3 0.00 0.53 0.53 84 1007.0
20260506194603 19 219 4.8 19.3 0.00 0.53 0.53 84 1007.0
20260506194036 19 181 6.4 19.3 0.00 0.53 0.53 84 1007.0
20260506193552 19 191 8.0 17.7 0.00 0.53 0.53 88 1007.0
20260506193026 18 207 6.4 19.3 0.00 0.53 0.53 89 1007.0
20260506192544 18 193 14.5 19.3 0.00 0.53 0.53 89 1006.9
20260506192042 18 171 14.5 17.7 0.00 0.53 0.53 90 1006.7
20260506191539 18 167 11.3 14.5 0.00 0.53 0.53 90 1006.9
20260506191032 18 234 8.0 14.5 0.00 0.53 0.53 90 1007.1
20260506190525 17 198 4.8 14.5 0.00 0.53 0.53 90 1007.3
20260506190045 17 206 9.7 14.5 0.00 0.53 0.53 89 1007.2
20260506185539 17 222 6.4 12.9 0.00 0.53 0.53 89 1007.3
20260506185035 17 200 3.2 14.5 0.00 0.53 0.53 90 1007.3
20260506184532 17 199 3.2 14.5 0.00 0.53 0.53 89 1007.4
20260506184027 17 182 4.8 16.1 0.00 0.53 0.53 89 1007.5
20260506183544 17 178 3.2 17.7 0.00 0.53 0.53 89 1007.4
20260506183044 17 196 6.4 19.3 0.00 0.53 0.53 89 1007.6
20260506182542 17 218 6.4 19.3 0.00 0.53 0.53 89 1007.7
20260506182037 17 213 11.3 17.7 0.00 0.53 0.53 88 1007.6
20260506181530 17 182 6.4 17.7 0.00 0.53 0.53 88 1007.6
20260506181025 18 211 6.4 17.7 0.00 0.53 0.53 87 1007.7
20260506180542 18 266 6.4 17.7 0.00 0.53 0.53 86 1007.7
20260506175535 18 204 9.7 20.9 0.00 0.53 0.53 84 1007.5
20260506175026 18 233 11.3 22.5 0.00 0.53 0.53 84 1007.5
20260506174542 18 215 9.7 22.5 0.00 0.53 0.53 84 1007.4
20260506174038 18 200 9.7 17.7 0.00 0.53 0.53 84 1007.3
20260506173531 18 192 11.3 20.9 0.00 0.53 0.53 85 1007.4
20260506173026 18 186 9.7 20.9 0.00 0.53 0.53 85 1007.4
20260506172542 18 198 12.9 20.9 0.00 0.53 0.53 85 1007.3
20260506172039 18 192 11.3 20.9 0.00 0.53 0.53 85 1007.3
20260506171532 18 179 9.7 22.5 0.00 0.53 0.53 85 1007.4
20260506171025 17 185 11.3 20.9 0.00 0.53 0.53 85 1007.3
20260506170544 17 196 16.1 20.9 0.00 0.53 0.53 85 1007.3
20260506170044 17 196 11.3 20.9 0.00 0.53 0.53 86 1007.3
20260506165537 17 188 11.3 20.9 0.00 0.53 0.53 86 1007.3
20260506165033 17 210 9.7 19.3 0.00 0.53 0.53 86 1007.3
20260506164525 17 182 11.3 19.3 0.00 0.53 0.53 87 1007.5
20260506164045 17 219 9.7 17.7 0.00 0.53 0.53 87 1007.5
20260506163540 17 188 8.0 19.3 0.00 0.53 0.53 87 1007.4
20260506163036 17 186 9.7 19.3 0.00 0.53 0.53 87 1007.4
20260506162528 17 223 8.0 19.3 0.00 0.53 0.53 87 1007.5
20260506162047 17 229 8.0 19.3 0.00 0.53 0.53 87 1007.4
20260506161546 17 215 6.4 20.9 0.00 0.53 0.53 87 1007.4
20260506161045 17 200 14.5 20.9 0.00 0.53 0.53 87 1007.4
20260506160542 17 220 12.9 22.5 0.00 0.53 0.53 88 1007.5
20260506160045 17 199 14.5 33.8 0.00 0.53 0.53 88 1007.4
20260506155538 17 184 17.7 33.8 0.00 0.53 0.53 88 1007.3
20260506155040 17 175 20.9 33.8 0.00 0.53 0.53 88 1007.3
20260506154541 17 196 17.7 32.2 0.00 0.53 0.53 90 1007.3
20260506154037 16 162 22.5 33.8 0.00 0.53 0.53 90 1007.2
20260506153556 16 184 16.1 27.4 0.00 0.53 0.53 91 1006.9
20260506153031 16 190 17.7 25.7 0.03 0.53 0.53 91 1007.0
20260506152525 16 178 14.5 25.7 0.05 0.53 0.53 91 1007.1
20260506152044 16 180 20.9 25.7 0.10 0.53 0.53 91 1007.0
20260506151544 16 180 16.1 32.2 0.13 0.53 0.53 91 1007.1
20260506151104 16 177 17.7 32.2 0.15 0.53 0.53 92 1007.2
20260506150534 16 180 20.9 27.4 0.18 0.53 0.53 92 1007.1
20260506150031 16 156 20.9 24.1 0.20 0.53 0.53 92 1006.9
20260506145550 16 182 17.7 24.1 0.23 0.53 0.53 92 1006.7
20260506145026 16 175 16.1 24.1 0.25 0.53 0.53 92 1006.8
20260506144540 16 163 19.3 25.7 0.25 0.53 0.53 91 1006.8
20260506144037 16 176 19.3 25.7 0.28 0.53 0.53 91 1007.0
20260506143531 16 171 17.7 24.1 0.28 0.51 0.51 91 1007.3
20260506143027 15 164 17.7 27.4 0.33 0.51 0.51 91 1007.4
20260506142547 15 171 16.1 22.5 0.28 0.46 0.46 90 1007.5
20260506142044 15 164 19.3 25.7 0.28 0.43 0.43 90 1007.6
20260506141541 16 167 17.7 30.6 0.25 0.41 0.41 90 1007.9
20260506141038 16 188 19.3 24.1 0.20 0.36 0.36 89 1008.1
20260506140557 16 186 16.1 24.1 0.20 0.36 0.36 89 1008.0
20260506140040 16 228 16.1 25.7 0.20 0.33 0.33 88 1008.0
20260506135533 16 173 16.1 22.5 0.18 0.30 0.30 88 1007.8
20260506135025 16 179 14.5 24.1 0.18 0.28 0.28 88 1007.9
20260506134605 16 179 17.7 29.0 0.18 0.28 0.28 87 1007.8
20260506134043 16 184 14.5 25.7 0.15 0.25 0.25 87 1007.7
20260506133541 16 197 16.1 25.7 0.13 0.23 0.23 86 1007.6
20260506133036 16 213 17.7 25.7 0.08 0.18 0.18 86 1007.7
20260506132530 16 194 17.7 25.7 0.08 0.18 0.18 86 1007.6
20260506132047 16 190 14.5 27.4 0.05 0.15 0.15 86 1007.6
20260506131536 16 144 19.3 27.4 0.05 0.15 0.15 85 1007.6
20260506131027 16 186 14.5 22.5 0.08 0.15 0.15 86 1007.5
20260506130541 16 164 16.1 22.5 0.08 0.15 0.15 85 1007.5
20260506130036 16 170 14.5 20.9 0.05 0.13 0.13 84 1007.6
20260506125530 16 187 14.5 22.5 0.05 0.13 0.13 84 1007.5
20260506125029 16 160 12.9 19.3 0.03 0.10 0.10 84 1007.5
20260506124547 16 147 16.1 19.3 0.03 0.10 0.10 83 1007.4
20260506124044 16 185 12.9 24.1 0.03 0.10 0.10 83 1007.4
20260506123543 16 158 12.9 24.1 0.03 0.10 0.10 83 1007.3
20260506123044 16 180 17.7 25.7 0.03 0.10 0.10 84 1007.4
20260506122537 16 155 17.7 25.7 0.03 0.10 0.10 84 1007.3
20260506122035 16 180 17.7 20.9 0.05 0.10 0.10 84 1007.3
20260506121531 16 165 16.1 19.3 0.05 0.10 0.10 83 1007.8
20260506121025 16 166 12.9 17.7 0.03 0.08 0.08 83 1007.8
20260506120542 16 172 12.9 19.3 0.05 0.08 0.08 83 1007.8
20260506120037 16 188 14.5 19.3 0.05 0.08 0.08 82 1007.7
20260506115555 16 190 12.9 25.7 0.05 0.08 0.08 82 1007.7
20260506115027 16 166 14.5 27.4 0.08 0.08 0.08 81 1007.7
20260506114539 16 176 16.1 24.1 0.08 0.08 0.08 80 1007.8
20260506114040 16 173 16.1 25.7 0.08 0.08 0.08 80 1007.8
20260506113527 16 185 14.5 25.7 0.08 0.08 0.08 79 1008.0
20260506113046 16 197 14.5 22.5 0.08 0.08 0.08 79 1008.0
20260506112603 16 189 12.9 22.5 0.05 0.05 0.05 78 1008.0
20260506112056 16 186 11.3 20.9 0.05 0.05 0.05 77 1007.9
20260506111528 16 186 14.5 24.1 0.05 0.05 0.05 75 1007.8
20260506111048 17 175 14.5 25.7 0.03 0.03 0.03 74 1007.8
20260506110544 17 184 17.7 25.7 0.03 0.03 0.03 72 1007.9
20260506110044 17 188 17.7 27.4 0.03 0.03 0.03 69 1007.7
20260506105538 18 186 17.7 27.4 0.00 0.00 0.00 67 1007.4
20260506105031 18 180 17.7 29.0 0.00 0.00 0.00 66 1007.2
20260506104524 18 187 14.5 22.5 0.00 0.00 0.00 65 1007.1
20260506104106 18 159 14.5 25.7 0.00 0.00 0.00 63 1007.0
20260506103538 18 156 17.7 25.7 0.00 0.00 0.00 61 1007.0
20260506103038 18 213 17.7 32.2 0.00 0.00 0.00 60 1007.0
20260506102534 18 169 17.7 33.8 0.00 0.00 0.00 59 1007.0
20260506102025 18 186 17.7 24.1 0.00 0.00 0.00 58 1006.8
20260506101542 18 194 16.1 22.5 0.00 0.00 0.00 58 1006.7
20260506101042 18 182 14.5 20.9 0.00 0.00 0.00 58 1006.7
20260506100535 18 183 14.5 20.9 0.00 0.00 0.00 58 1006.7
20260506100041 18 182 14.5 20.9 0.00 0.00 0.00 58 1006.5
20260506095538 18 186 16.1 20.9 0.00 0.00 0.00 58 1006.4
20260506095033 18 183 12.9 17.7 0.00 0.00 0.00 58 1006.4
20260506094524 18 188 12.9 22.5 0.00 0.00 0.00 58 1006.5
20260506094106 18 161 14.5 22.5 0.00 0.00 0.00 58 1006.4
20260506093540 18 194 14.5 19.3 0.00 0.00 0.00 58 1006.6
20260506093043 19 202 12.9 25.7 0.00 0.00 0.00 58 1006.6
20260506092542 19 176 17.7 25.7 0.00 0.00 0.00 57 1006.5
20260506092104 19 187 17.7 22.5 0.00 0.00 0.00 57 1006.6
20260506091541 19 187 16.1 20.9 0.00 0.00 0.00 57 1006.5
20260506091037 19 176 16.1 22.5 0.00 0.00 0.00 57 1006.7
20260506090530 19 194 16.1 22.5 0.00 0.00 0.00 57 1006.7
20260506090028 19 177 17.7 25.7 0.00 0.00 0.00 57 1006.6
20260506085539 19 167 14.5 20.9 0.00 0.00 0.00 56 1006.7
20260506085034 19 167 14.5 20.9 0.00 0.00 0.00 56 1006.9
20260506084553 19 158 14.5 20.9 0.00 0.00 0.00 56 1007.0
20260506084026 19 184 12.9 20.9 0.00 0.00 0.00 55 1007.1
20260506083541 19 194 14.5 20.9 0.00 0.00 0.00 55 1007.1
20260506083043 19 161 16.1 24.1 0.00 0.00 0.00 55 1007.0
20260506082538 19 190 16.1 24.1 0.00 0.00 0.00 55 1007.0
20260506082100 19 178 12.9 17.7 0.00 0.00 0.00 55 1007.0
20260506081537 19 173 11.3 19.3 0.00 0.00 0.00 55 1007.1
20260506081041 19 169 12.9 17.7 0.00 0.00 0.00 54 1007.1
20260506080534 19 155 14.5 17.7 0.00 0.00 0.00 54 1007.1
20260506073043 20 176 12.9 20.9 0.00 0.00 0.00 51 1006.9
20260506072534 20 134 12.9 20.9 0.00 0.00 0.00 50 1006.9
20260506072027 20 163 12.9 20.9 0.00 0.00 0.00 50 1007.0
20260506071543 20 136 17.7 24.1 0.00 0.00 0.00 50 1007.1
20260506071038 20 175 12.9 19.3 0.00 0.00 0.00 50 1006.9
20260506070532 20 169 14.5 24.1 0.00 0.00 0.00 49 1007.1
20260506062033 20 143 12.9 22.5 0.00 0.00 0.00 49 1007.6
20260506061525 20 157 12.9 24.1 0.00 0.00 0.00 49 1007.8
20260506061041 20 148 9.7 24.1 0.00 0.00 0.00 49 1007.8
20260506060539 20 143 14.5 22.5 0.00 0.00 0.00 49 1007.9
20260506051033 19 139 8.0 14.5 0.00 0.00 0.00 48 1008.7
20260506050528 19 135 8.0 12.9 0.00 0.00 0.00 47 1008.6
20260506045043 19 153 8.0 16.1 0.00 0.00 0.00 46 1008.6
20260506044540 19 155 9.7 16.1 0.00 0.00 0.00 46 1008.7
20260506044045 19 165 11.3 14.5 0.00 0.00 0.00 45 1008.6
20260506043604 20 155 11.3 17.7 0.00 0.00 0.00 45 1008.7
20260506043041 20 142 9.7 17.7 0.00 0.00 0.00 45 1008.6
20260506042534 20 162 11.3 16.1 0.00 0.00 0.00 45 1008.6
20260506042030 20 171 12.9 14.5 0.00 0.00 0.00 45 1008.7
20260506041524 20 158 12.9 17.7 0.00 0.00 0.00 45 1008.6
20260506041044 20 172 12.9 17.7 0.00 0.00 0.00 44 1008.7
20260506040543 20 175 11.3 16.1 0.00 0.00 0.00 44 1008.6
20260506040041 20 154 9.7 16.1 0.00 0.00 0.00 44 1008.6
20260506035539 20 153 6.4 8.0 0.00 0.00 0.00 44 1008.5
20260506035033 20 142 6.4 8.0 0.00 0.00 0.00 44 1008.4
20260506034525 20 149 4.8 8.0 0.00 0.00 0.00 45 1008.4
20260506034105 20 165 6.4 11.3 0.00 0.00 0.00 44 1008.4
20260506033541 20 167 8.0 11.3 0.00 0.00 0.00 44 1008.6
20260506033041 20 157 8.0 11.3 0.00 0.00 0.00 44 1008.6
20260506032534 20 173 8.0 11.3 0.00 0.00 0.00 43 1008.5
20260506032024 20 174 8.0 9.7 0.00 0.00 0.00 44 1008.5
20260506031539 20 170 8.0 11.3 0.00 0.00 0.00 44 1008.4
20260506031038 20 160 8.0 11.3 0.00 0.00 0.00 43 1008.4
20260506030531 20 145 8.0 11.3 0.00 0.00 0.00 43 1008.4
20260506030027 20 150 6.4 11.3 0.00 0.00 0.00 43 1008.4
20260506025544 20 161 4.8 11.3 0.00 0.00 0.00 43 1008.4
20260506025039 20 146 6.4 12.9 0.00 0.00 0.00 43 1008.5
20260506024558 21 159 9.7 14.5 0.00 0.00 0.00 41 1008.6
20260506024033 21 165 11.3 14.5 0.00 0.00 0.00 41 1008.5
20260506023524 21 168 9.7 14.5 0.00 0.00 0.00 40 1008.5
20260506023045 21 153 8.0 16.1 0.00 0.00 0.00 41 1008.4
20260506022542 21 173 9.7 12.9 0.00 0.00 0.00 40 1008.5
20260506022043 21 161 11.3 16.1 0.00 0.00 0.00 39 1008.6
20260506021540 21 162 12.9 17.7 0.00 0.00 0.00 39 1008.5
20260506021034 22 167 12.9 17.7 0.00 0.00 0.00 39 1008.5
20260506020525 22 162 14.5 20.9 0.00 0.00 0.00 38 1008.4
20260506020044 22 161 16.1 20.9 0.00 0.00 0.00 39 1008.4
20260506015541 22 186 17.7 20.9 0.00 0.00 0.00 39 1008.4
20260506015037 22 165 17.7 20.9 0.00 0.00 0.00 39 1008.4
20260506014533 22 173 16.1 22.5 0.00 0.00 0.00 39 1008.4
20260506014026 22 151 16.1 20.9 0.00 0.00 0.00 40 1008.2
20260506013541 22 167 14.5 20.9 0.00 0.00 0.00 40 1008.3
20260506013034 22 159 14.5 22.5 0.00 0.00 0.00 40 1008.2
20260506012525 22 158 14.5 19.3 0.00 0.00 0.00 40 1008.0
20260506012038 22 148 12.9 17.7 0.00 0.00 0.00 40 1008.0
20260506011532 22 178 14.5 19.3 0.00 0.00 0.00 40 1008.0
20260506011026 22 169 12.9 20.9 0.00 0.00 0.00 41 1007.8
20260506010543 22 169 9.7 14.5 0.00 0.00 0.00 41 1007.8
20260506010044 22 155 9.7 14.5 0.00 0.00 0.00 40 1007.8
20260506005542 22 180 9.7 12.9 0.00 0.00 0.00 40 1007.7
20260506005042 22 165 9.7 14.5 0.00 0.00 0.00 39 1007.7
20260506004540 22 188 8.0 11.3 0.00 0.00 0.00 39 1007.7
20260506004036 23 171 9.7 12.9 0.00 0.00 0.00 39 1007.8
20260506003531 23 167 9.7 12.9 0.00 0.00 0.00 39 1007.7
20260506003026 23 176 9.7 14.5 0.00 0.00 0.00 39 1007.7
20260506002537 23 182 9.7 14.5 0.00 0.00 0.00 38 1007.5
20260506002039 23 166 12.9 17.7 0.00 0.00 0.00 38 1007.5
20260506001530 23 175 12.9 17.7 0.00 0.00 0.00 38 1007.4
20260506001026 23 188 12.9 25.7 0.00 0.00 0.00 37 1007.4
20260506000543 24 187 14.5 24.1 0.00 0.00 0.00 37 1007.3
20260506000034 24 183 14.5 24.1 0.00 0.00 0.00 37 1007.3
20260505235525 24 167 16.1 22.5 0.00 0.00 0.00 36 1007.2
20260505235045 24 161 16.1 22.5 0.00 0.00 0.00 37 1007.1
20260505234538 25 182 16.1 29.0 0.00 0.00 0.00 36 1007.1
20260505234030 25 161 17.7 29.0 0.00 0.00 0.00 36 1007.0
20260505233543 25 169 17.7 25.7 0.00 0.00 0.00 36 1007.0
20260505233043 25 154 19.3 27.4 0.00 0.00 0.00 36 1007.1
20260505232530 25 165 17.7 27.4 0.00 0.00 0.00 36 1007.1
20260505232026 25 194 19.3 27.4 0.00 0.00 0.00 36 1007.0
20260505231539 25 177 20.9 27.4 0.00 0.00 0.00 36 1007.0
20260505231035 25 160 19.3 32.2 0.00 0.00 0.00 36 1007.0
20260505230526 25 175 16.1 30.6 0.00 0.00 0.00 36 1006.8
20260505230044 25 186 17.7 27.4 0.00 0.00 0.00 36 1006.9
20260505225536 25 182 19.3 33.8 0.00 0.00 0.00 35 1006.9
20260505225041 25 171 17.7 33.8 0.00 0.00 0.00 36 1007.0
20260505224541 26 190 19.3 32.2 0.00 0.00 0.00 35 1006.9
20260505224037 26 155 20.9 29.0 0.00 0.00 0.00 34 1006.9
20260505223529 26 178 19.3 37.0 0.00 0.00 0.00 33 1006.8
20260505223025 26 188 19.3 38.6 0.00 0.00 0.00 32 1006.9
20260505222531 26 187 27.4 40.2 0.00 0.00 0.00 31 1006.9
20260505222044 26 184 22.5 40.2 0.00 0.00 0.00 29 1006.9
20260505221529 26 187 24.1 40.2 0.00 0.00 0.00 29 1006.8
20260505221043 26 196 24.1 40.2 0.00 0.00 0.00 29 1006.8
20260505220535 26 174 30.6 41.8 0.00 0.00 0.00 28 1006.9
20260505220027 27 186 30.6 41.8 0.00 0.00 0.00 28 1006.9
20260505215540 27 198 25.7 53.1 0.00 0.00 0.00 29 1006.9
20260505215035 27 182 29.0 53.1 0.00 0.00 0.00 29 1006.8
20260505214526 27 185 25.7 38.6 0.00 0.00 0.00 29 1006.8
20260505214047 27 175 22.5 32.2 0.00 0.00 0.00 29 1006.8
20260505213603 28 189 24.1 41.8 0.00 0.00 0.00 29 1006.8
20260505213043 28 223 20.9 45.1 0.00 0.00 0.00 29 1006.8
20260505212600 28 184 24.1 45.1 0.00 0.00 0.00 30 1006.8
20260505212036 28 192 24.1 37.0 0.00 0.00 0.00 29 1006.7
20260505211528 28 188 20.9 45.1 0.00 0.00 0.00 30 1006.7
20260505211044 28 174 29.0 45.1 0.00 0.00 0.00 30 1006.7
20260505210537 28 157 29.0 41.8 0.00 0.00 0.00 30 1006.8
20260505210036 28 170 30.6 38.6 0.00 0.00 0.00 29 1006.7
20260505205526 28 176 16.1 38.6 0.00 0.00 0.00 31 1006.7
20260505205044 28 171 22.5 43.5 0.00 0.00 0.00 30 1006.7
20260505204536 28 169 32.2 43.5 0.00 0.00 0.00 29 1006.9
20260505204033 28 170 24.1 40.2 0.00 0.00 0.00 30 1006.8
20260505203526 28 184 24.1 40.2 0.00 0.00 0.00 32 1006.8
20260505203044 28 163 24.1 38.6 0.00 0.00 0.00 32 1006.8
20260505202542 28 192 24.1 38.6 0.00 0.00 0.00 31 1006.8
20260505202039 28 184 29.0 41.8 0.00 0.00 0.00 31 1006.9
20260505201558 28 190 20.9 41.8 0.00 0.00 0.00 31 1006.7
20260505201034 28 178 24.1 45.1 0.00 0.00 0.00 31 1006.9
20260505200526 28 197 16.1 40.2 0.00 0.00 0.00 32 1006.9
20260505200043 28 205 27.4 38.6 0.00 0.00 0.00 32 1006.9